DW6901 Weather Reports


Display with metric or nautical units.
time (UTC)temp
F
wind
direction
speed
MPH
gust
MPH
rain 1hr
in
rain 24hr
in
rain mn
in
humidity
%
barometer
mb
20260507013516 63 221 11.0 15.0 0.00 0.00 0.00 82 1015.5
20260507013032 63 252 9.0 17.0 0.00 0.00 0.00 83 1015.4
20260507012516 63 248 9.0 17.0 0.00 0.00 0.00 82 1015.5
20260507012017 63 234 9.0 16.0 0.00 0.00 0.00 82 1015.5
20260507011533 63 247 11.0 16.0 0.00 0.00 0.00 83 1015.5
20260507011015 62 250 11.0 18.0 0.00 0.00 0.00 83 1015.5
20260507010516 63 208 10.0 18.0 0.00 0.00 0.00 82 1015.5
20260507010033 63 239 10.0 17.0 0.00 0.00 0.00 82 1015.5
20260507005516 63 236 11.0 18.0 0.00 0.00 0.00 83 1015.4
20260507005017 63 238 11.0 18.0 0.00 0.00 0.00 83 1015.3
20260507004530 63 229 11.0 18.0 0.00 0.00 0.00 82 1015.4
20260507004020 64 234 9.0 15.0 0.00 0.00 0.00 80 1015.2
20260507003515 64 259 10.0 15.0 0.00 0.00 0.00 80 1015.4
20260507003033 64 246 10.0 15.0 0.00 0.00 0.00 80 1015.5
20260507002515 64 246 9.0 17.0 0.00 0.00 0.00 81 1015.5
20260507002015 64 247 11.0 17.0 0.00 0.00 0.00 81 1015.3
20260507001532 63 260 10.0 17.0 0.00 0.00 0.00 81 1015.3
20260507001017 64 257 12.0 16.0 0.00 0.00 0.00 81 1015.3
20260507000516 63 217 11.0 17.0 0.00 0.00 0.00 81 1015.3
20260507000036 63 258 10.0 17.0 0.00 0.00 0.00 81 1015.3
20260506235516 64 180 10.0 17.0 0.00 0.00 0.00 82 1015.3
20260506235015 63 263 8.0 17.0 0.00 0.00 0.00 82 1015.3
20260506234530 64 248 11.0 17.0 0.00 0.00 0.00 81 1015.4
20260506234015 64 223 10.0 16.0 0.00 0.00 0.00 80 1015.5
20260506233516 64 245 10.0 16.0 0.00 0.00 0.00 79 1015.6
20260506233035 65 246 9.0 16.0 0.00 0.00 0.00 78 1015.5
20260506232515 65 239 11.0 16.0 0.00 0.00 0.00 77 1015.6
20260506232016 65 176 7.0 16.0 0.00 0.00 0.00 78 1015.5
20260506231532 64 207 9.0 17.0 0.00 0.00 0.00 78 1015.5
20260506231018 63 195 10.0 17.0 0.00 0.00 0.00 80 1015.6
20260506230516 64 213 11.0 17.0 0.00 0.00 0.00 79 1015.7
20260506230031 64 189 10.0 17.0 0.00 0.00 0.00 77 1015.6
20260506225520 65 175 9.0 16.0 0.00 0.00 0.00 77 1015.6
20260506225016 64 218 10.0 16.0 0.00 0.00 0.00 78 1015.6
20260506224532 64 221 11.0 17.0 0.00 0.00 0.00 77 1015.8
20260506224016 65 178 10.0 17.0 0.00 0.00 0.00 78 1015.8
20260506223515 65 254 11.0 16.0 0.00 0.00 0.00 78 1015.9
20260506223032 65 249 10.0 16.0 0.00 0.00 0.00 78 1016.0
20260506222516 65 180 8.0 16.0 0.00 0.00 0.00 78 1016.1
20260506222018 65 252 9.0 16.0 0.00 0.00 0.00 78 1016.0
20260506221530 64 178 9.0 15.0 0.00 0.00 0.00 79 1016.1
20260506221019 64 182 11.0 17.0 0.00 0.00 0.00 79 1016.3
20260506220515 63 222 11.0 17.0 0.00 0.00 0.00 79 1016.3
20260506220030 64 194 10.0 17.0 0.00 0.00 0.00 78 1016.3
20260506215520 64 229 11.0 18.0 0.00 0.00 0.00 78 1016.4
20260506215018 64 187 11.0 18.0 0.00 0.00 0.00 78 1016.4
20260506214529 64 168 9.0 18.0 0.00 0.00 0.00 79 1016.5
20260506214015 64 271 10.0 18.0 0.00 0.00 0.00 78 1016.5
20260506213515 64 211 12.0 18.0 0.00 0.00 0.00 79 1016.6
20260506213031 63 190 11.0 16.0 0.00 0.00 0.00 78 1016.6
20260506212515 63 197 10.0 15.0 0.00 0.00 0.00 78 1016.6
20260506212015 64 251 10.0 16.0 0.00 0.00 0.00 78 1016.7
20260506211534 64 242 11.0 16.0 0.00 0.00 0.00 77 1016.6
20260506211015 64 279 9.0 16.0 0.00 0.00 0.00 79 1016.6
20260506210517 63 243 10.0 16.0 0.00 0.00 0.00 80 1016.7
20260506210032 63 240 10.0 16.0 0.00 0.00 0.00 79 1016.7
20260506205515 64 232 10.0 16.0 0.00 0.00 0.00 79 1016.7
20260506205015 64 225 11.0 16.0 0.00 0.00 0.00 80 1016.8
20260506204530 64 205 11.0 16.0 0.00 0.00 0.00 79 1016.8
20260506204014 63 196 10.0 16.0 0.00 0.00 0.00 80 1016.9
20260506203518 63 226 9.0 16.0 0.00 0.00 0.00 81 1017.0
20260506203031 63 229 10.0 16.0 0.00 0.00 0.00 80 1017.0
20260506202515 64 292 9.0 14.0 0.00 0.00 0.00 80 1016.9
20260506202016 64 222 7.0 14.0 0.00 0.00 0.00 81 1017.1
20260506201531 63 213 7.0 14.0 0.00 0.00 0.00 80 1017.1
20260506201014 63 205 7.0 14.0 0.00 0.00 0.00 80 1017.0
20260506200519 64 190 9.0 13.0 0.00 0.00 0.00 79 1017.2
20260506200030 63 288 8.0 15.0 0.00 0.00 0.00 80 1017.1
20260506195515 64 238 8.0 15.0 0.00 0.00 0.00 80 1017.1
20260506195016 63 221 10.0 15.0 0.00 0.00 0.00 80 1017.2
20260506194534 63 255 10.0 15.0 0.00 0.00 0.00 80 1017.3
20260506194016 63 187 10.0 15.0 0.00 0.00 0.00 79 1017.3
20260506193514 63 274 9.0 15.0 0.00 0.00 0.00 80 1017.3
20260506193032 63 228 10.0 15.0 0.00 0.00 0.00 78 1017.5
20260506192519 64 236 8.0 17.0 0.00 0.00 0.00 76 1017.5
20260506192015 63 184 10.0 17.0 0.00 0.00 0.00 78 1017.4
20260506191530 63 241 10.0 15.0 0.00 0.00 0.00 78 1017.6
20260506191014 63 192 8.0 15.0 0.00 0.00 0.00 80 1017.6
20260506190515 63 229 9.0 15.0 0.00 0.00 0.00 79 1017.6
20260506190030 63 280 8.0 15.0 0.00 0.00 0.00 78 1017.7
20260506185515 63 234 7.0 15.0 0.00 0.00 0.00 79 1017.7
20260506185015 63 222 8.0 15.0 0.00 0.00 0.00 79 1017.7
20260506184530 63 232 9.0 15.0 0.00 0.00 0.00 78 1017.7
20260506184015 63 210 8.0 13.0 0.00 0.00 0.00 78 1017.7
20260506183515 63 219 6.0 15.0 0.00 0.00 0.00 77 1017.7
20260506183030 63 187 8.0 15.0 0.00 0.00 0.00 77 1017.7
20260506182514 63 224 7.0 13.0 0.00 0.00 0.00 78 1017.8
20260506182014 63 222 8.0 13.0 0.00 0.00 0.00 80 1017.7
20260506181530 63 295 7.0 13.0 0.00 0.00 0.00 79 1017.7
20260506181020 62 243 8.0 13.0 0.00 0.00 0.00 79 1017.7
20260506180516 63 240 7.0 13.0 0.00 0.00 0.00 79 1017.7
20260506180045 63 235 9.0 13.0 0.00 0.00 0.00 79 1017.7
20260506175514 63 207 6.0 14.0 0.00 0.00 0.00 77 1017.9
20260506175014 63 187 7.0 14.0 0.00 0.00 0.00 78 1017.9
20260506174529 62 252 7.0 10.0 0.00 0.00 0.00 78 1017.6
20260506174014 63 190 6.0 10.0 0.00 0.00 0.00 77 1017.7
20260506173515 63 188 6.0 12.0 0.00 0.00 0.00 76 1017.7
20260506173034 63 257 6.0 12.0 0.00 0.00 0.00 76 1017.5
20260506172515 63 238 7.0 11.0 0.00 0.00 0.00 74 1017.5
20260506172015 63 182 5.0 11.0 0.00 0.00 0.00 74 1017.5
20260506171533 63 191 6.0 11.0 0.00 0.00 0.00 75 1017.6
20260506171015 63 213 6.0 11.0 0.00 0.00 0.00 74 1017.6
20260506170516 64 241 6.0 11.0 0.00 0.00 0.00 73 1017.6
20260506170032 65 217 3.0 8.0 0.00 0.00 0.00 73 1017.5
20260506165515 65 229 4.0 10.0 0.00 0.00 0.00 73 1017.4
20260506165015 66 194 5.0 10.0 0.00 0.00 0.00 71 1017.3
20260506164532 65 69 2.0 6.0 0.00 0.00 0.00 72 1017.4
20260506164014 64 59 1.0 4.0 0.00 0.00 0.00 74 1017.4
20260506163514 64 137 1.0 4.0 0.00 0.00 0.00 73 1017.4
20260506163050 64 271 1.0 3.0 0.00 0.00 0.00 73 1017.3
20260506162519 64 325 0.0 4.0 0.00 0.00 0.00 74 1017.4
20260506162014 64 160 1.0 4.0 0.00 0.00 0.00 72 1017.5
20260506161533 65 134 2.0 5.0 0.00 0.00 0.00 72 1017.6
20260506161014 65 117 2.0 4.0 0.00 0.00 0.00 74 1017.5
20260506160514 64 83 1.0 4.0 0.00 0.00 0.00 75 1017.7
20260506160034 64 50 1.0 5.0 0.00 0.00 0.00 76 1017.8
20260506155515 64 45 3.0 6.0 0.00 0.00 0.00 75 1017.7
20260506155017 64 28 2.0 7.0 0.00 0.00 0.00 75 1017.6
20260506154534 64 74 2.0 7.0 0.00 0.00 0.00 76 1017.6
20260506154017 64 132 1.0 4.0 0.00 0.00 0.00 77 1017.5
20260506153514 64 63 2.0 4.0 0.00 0.00 0.00 79 1017.5
20260506153030 63 64 1.0 4.0 0.00 0.00 0.00 79 1017.5
20260506152514 63 126 2.0 4.0 0.00 0.00 0.00 80 1017.6
20260506152023 62 0 0.0 4.0 0.00 0.00 0.00 80 1017.6
20260506151530 62 76 2.0 4.0 0.00 0.00 0.00 80 1017.7
20260506151014 62 96 0.0 4.0 0.00 0.00 0.00 81 1017.6
20260506150514 61 120 1.0 4.0 0.00 0.00 0.00 82 1017.7
20260506150033 61 93 0.0 2.0 0.00 0.00 0.00 83 1017.8
20260506145517 61 0 1.0 3.0 0.00 0.00 0.00 83 1017.7
20260506145015 60 43 0.0 3.0 0.00 0.00 0.00 84 1017.7
20260506144531 60 74 1.0 4.0 0.00 0.00 0.00 85 1017.8
20260506144015 59 65 1.0 4.0 0.00 0.00 0.00 85 1017.7
20260506143517 59 65 2.0 3.0 0.00 0.00 0.00 85 1017.7
20260506143045 59 67 1.0 3.0 0.00 0.00 0.00 86 1017.6
20260506142514 58 71 1.0 3.0 0.00 0.00 0.00 87 1017.7
20260506142014 58 68 1.0 3.0 0.00 0.00 0.00 87 1017.6
20260506141535 58 61 2.0 3.0 0.00 0.00 0.00 87 1017.5
20260506141015 57 49 2.0 3.0 0.00 0.00 0.00 87 1017.5
20260506140518 57 55 1.0 2.0 0.00 0.00 0.00 88 1017.5
20260506140030 57 46 1.0 2.0 0.00 0.00 0.00 89 1017.5
20260506135514 57 39 1.0 2.0 0.00 0.00 0.00 90 1017.4
20260506135014 56 39 0.0 2.0 0.00 0.00 0.00 90 1017.5
20260506134531 55 36 0.0 2.0 0.00 0.00 0.00 90 1017.3
20260506134020 55 36 0.0 2.0 0.00 0.00 0.00 90 1017.3
20260506133516 55 36 1.0 2.0 0.00 0.00 0.00 90 1017.3
20260506133030 54 36 0.0 2.0 0.00 0.00 0.00 90 1017.2
20260506132515 54 0 0.0 2.0 0.00 0.00 0.00 90 1017.2
20260506132015 54 36 0.0 2.0 0.00 0.00 0.00 90 1017.0
20260506131532 54 0 0.0 2.0 0.00 0.00 0.00 90 1017.0
20260506131014 54 36 0.0 2.0 0.00 0.00 0.00 90 1016.8
20260506130518 54 36 0.0 2.0 0.00 0.00 0.00 90 1016.8
20260506130031 54 30 0.0 2.0 0.00 0.00 0.00 89 1017.0
20260506125514 54 0 0.0 2.0 0.00 0.00 0.00 89 1016.7
20260506125014 54 30 0.0 2.0 0.00 0.00 0.00 89 1016.6
20260506124532 54 65 0.0 2.0 0.00 0.00 0.00 89 1016.6
20260506124014 54 65 0.0 2.0 0.00 0.00 0.00 89 1016.6
20260506123514 54 0 0.0 2.0 0.00 0.00 0.00 89 1016.5
20260506123033 54 0 0.0 2.0 0.00 0.00 0.00 89 1016.4
20260506122515 54 0 0.0 2.0 0.00 0.00 0.00 89 1016.5
20260506122014 54 0 0.0 2.0 0.00 0.00 0.00 89 1016.6
20260506121539 55 65 0.0 2.0 0.00 0.00 0.00 89 1016.5
20260506121015 55 65 0.0 2.0 0.00 0.00 0.00 89 1016.6
20260506120516 55 65 1.0 2.0 0.00 0.00 0.00 89 1016.5
20260506120031 55 65 0.0 2.0 0.00 0.00 0.00 89 1016.5
20260506115514 55 65 0.0 1.0 0.00 0.00 0.00 89 1016.4
20260506115014 55 65 0.0 2.0 0.00 0.00 0.00 89 1016.3
20260506114539 55 65 0.0 2.0 0.00 0.00 0.00 89 1016.3
20260506114016 55 65 0.0 2.0 0.00 0.00 0.00 89 1016.4
20260506113515 55 0 0.0 0.0 0.00 0.00 0.00 89 1016.4
20260506113030 55 0 0.0 0.0 0.00 0.00 0.00 89 1016.5
20260506112519 55 0 0.0 2.0 0.00 0.00 0.00 89 1016.3
20260506112018 55 0 0.0 2.0 0.00 0.00 0.00 89 1016.3
20260506111537 55 0 0.0 0.0 0.00 0.00 0.00 89 1016.4
20260506111014 55 0 0.0 1.0 0.00 0.00 0.00 89 1016.4
20260506110518 56 0 0.0 2.0 0.00 0.00 0.00 89 1016.3
20260506110033 56 65 0.0 2.0 0.00 0.00 0.00 89 1016.4
20260506105516 56 65 1.0 2.0 0.00 0.01 0.00 89 1016.3
20260506105015 56 59 0.0 2.0 0.00 0.01 0.00 89 1016.3
20260506104532 56 0 0.0 2.0 0.00 0.01 0.00 89 1016.2
20260506104015 56 59 1.0 1.0 0.00 0.01 0.00 89 1016.3
20260506103516 56 59 1.0 2.0 0.00 0.01 0.00 89 1016.3
20260506103030 56 59 1.0 2.0 0.00 0.01 0.00 88 1016.3
20260506102518 56 61 1.0 2.0 0.00 0.01 0.00 88 1016.4
20260506102013 56 0 0.0 2.0 0.00 0.01 0.00 88 1016.3
20260506101534 57 0 0.0 2.0 0.00 0.01 0.00 88 1016.3
20260506101014 57 0 0.0 1.0 0.00 0.01 0.00 88 1016.3
20260506100514 57 0 0.0 2.0 0.00 0.01 0.00 88 1016.3
20260506100032 57 0 0.0 2.0 0.00 0.01 0.00 88 1016.4
20260506095515 57 0 0.0 2.0 0.00 0.01 0.00 88 1016.4
20260506095022 58 0 0.0 2.0 0.00 0.01 0.00 88 1016.4
20260506094530 57 193 0.0 2.0 0.00 0.01 0.00 88 1016.4
20260506094015 58 193 0.0 2.0 0.00 0.01 0.00 88 1016.3
20260506093515 58 193 0.0 2.0 0.00 0.01 0.00 88 1016.3
20260506093032 58 193 0.0 2.0 0.00 0.01 0.00 88 1016.4
20260506092515 58 193 1.0 2.0 0.00 0.01 0.00 88 1016.4
20260506092013 58 193 1.0 3.0 0.00 0.01 0.00 88 1016.4
20260506091530 58 207 1.0 3.0 0.00 0.01 0.00 88 1016.5
20260506091015 58 202 2.0 3.0 0.00 0.01 0.00 88 1016.5
20260506090514 58 197 2.0 3.0 0.00 0.01 0.00 88 1016.6
20260506090030 58 231 2.0 4.0 0.00 0.01 0.00 88 1016.7
20260506085514 58 229 2.0 4.0 0.00 0.01 0.00 87 1016.6
20260506085016 58 202 2.0 4.0 0.00 0.01 0.00 87 1016.8
20260506084530 58 212 1.0 4.0 0.00 0.01 0.00 87 1016.7
20260506084016 58 190 2.0 4.0 0.00 0.01 0.00 87 1016.8
20260506083516 58 188 2.0 4.0 0.00 0.01 0.00 87 1016.8
20260506083030 58 202 1.0 4.0 0.00 0.01 0.00 87 1016.9
20260506082514 58 217 0.0 4.0 0.00 0.01 0.00 87 1016.8
20260506082015 58 195 2.0 5.0 0.00 0.01 0.00 87 1016.8
20260506081529 58 205 2.0 5.0 0.00 0.01 0.00 86 1016.8
20260506081015 58 181 1.0 4.0 0.00 0.01 0.00 86 1016.8
20260506080517 58 190 2.0 5.0 0.00 0.01 0.00 86 1017.0
20260506073515 58 188 0.0 2.0 0.00 0.01 0.00 85 1016.9
20260506073030 58 188 0.0 2.0 0.00 0.01 0.00 84 1016.9
20260506072515 58 0 0.0 2.0 0.00 0.01 0.00 84 1016.9
20260506072011 59 0 0.0 3.0 0.00 0.01 0.00 84 1016.8
20260506071533 59 188 1.0 3.0 0.00 0.01 0.00 85 1016.8
20260506071012 59 190 2.0 4.0 0.00 0.01 0.00 85 1016.7
20260506070515 59 191 1.0 4.0 0.00 0.01 0.00 84 1016.6
20260506062015 59 202 3.0 7.0 0.00 0.01 0.01 84 1016.3
20260506061535 59 172 2.0 6.0 0.00 0.01 0.01 84 1016.4
20260506061017 59 182 3.0 6.0 0.00 0.01 0.01 85 1016.4
20260506060516 59 198 2.0 5.0 0.00 0.01 0.01 85 1016.4
20260506051014 59 198 4.0 8.0 0.00 0.01 0.01 85 1016.0
20260506050518 59 196 4.0 8.0 0.00 0.01 0.01 85 1015.9
20260506045013 59 198 2.0 6.0 0.00 0.01 0.01 84 1015.6
20260506044542 60 224 3.0 6.0 0.00 0.01 0.01 84 1015.6
20260506044018 60 228 2.0 4.0 0.00 0.01 0.01 83 1015.6
20260506043514 60 203 2.0 3.0 0.00 0.01 0.01 83 1015.6
20260506043032 60 211 1.0 3.0 0.00 0.01 0.01 83 1015.5
20260506042515 60 192 1.0 3.0 0.00 0.01 0.01 82 1015.5
20260506042018 60 189 2.0 3.0 0.00 0.01 0.01 82 1015.4
20260506041532 60 221 2.0 3.0 0.00 0.01 0.01 81 1015.4
20260506041014 60 241 1.0 3.0 0.00 0.01 0.01 81 1015.3
20260506040605 60 250 1.0 4.0 0.00 0.01 0.01 81 1015.3
20260506040051 60 242 1.0 5.0 0.00 0.01 0.01 80 1015.3
20260506035515 60 218 2.0 5.0 0.00 0.01 0.01 80 1015.1
20260506035014 60 194 1.0 5.0 0.00 0.01 0.01 80 1015.1
20260506034534 60 213 2.0 5.0 0.00 0.01 0.01 80 1015.0
20260506034015 60 265 2.0 6.0 0.00 0.01 0.01 80 1014.9
20260506033514 60 244 3.0 6.0 0.00 0.01 0.01 80 1014.7
20260506033032 60 278 3.0 6.0 0.00 0.01 0.01 80 1014.8
20260506032515 60 198 3.0 7.0 0.00 0.01 0.01 80 1014.7
20260506032016 60 199 4.0 7.0 0.00 0.01 0.01 80 1014.6
20260506031542 60 248 3.0 8.0 0.00 0.01 0.01 81 1014.7
20260506031018 60 253 4.0 8.0 0.00 0.01 0.01 80 1014.8
20260506030514 60 236 3.0 7.0 0.00 0.01 0.01 81 1014.6
20260506030029 60 260 4.0 7.0 0.00 0.01 0.01 80 1014.5
20260506025516 60 211 3.0 8.0 0.00 0.01 0.01 80 1014.4
20260506025014 60 190 4.0 8.0 0.00 0.01 0.01 80 1014.3
20260506024533 60 237 4.0 9.0 0.00 0.01 0.01 80 1014.2
20260506024014 60 229 5.0 9.0 0.00 0.01 0.01 80 1014.1
20260506023516 60 162 5.0 10.0 0.00 0.01 0.01 80 1014.1
20260506023030 60 198 5.0 10.0 0.00 0.01 0.01 79 1014.0
20260506022515 61 245 5.0 9.0 0.00 0.01 0.01 79 1014.1
20260506022015 61 244 4.0 9.0 0.00 0.01 0.01 79 1014.0
20260506021528 61 249 5.0 9.0 0.00 0.01 0.01 79 1014.0
20260506021016 61 242 5.0 9.0 0.00 0.01 0.01 79 1014.1
20260506020514 61 244 4.0 10.0 0.00 0.01 0.01 79 1014.0
20260506020030 61 205 6.0 10.0 0.00 0.01 0.01 79 1013.8
20260506015515 61 194 6.0 11.0 0.00 0.01 0.01 78 1013.7
20260506015015 61 179 7.0 11.0 0.00 0.01 0.01 78 1013.8
20260506014534 61 240 7.0 10.0 0.00 0.01 0.01 78 1013.8
20260506014014 61 219 5.0 10.0 0.00 0.01 0.01 77 1013.9